When you browse on this site, cookies collect data to enhance your experience and personalize the content and advertising you see.
Visit our Privacy Policy to learn more. By continuing to use the site, you agree to this use of cookies and data.
  • Em Portugal
  • Lista de países
  • Para 7 dias
  • Temperatura da água
  • Mapas de satélite
  • Mapa do tempo
  • Widgets de tempo
  • user-avatar
    Iniciar Sessão

    Previsão horária em Tiba

    Hoje, 19 Novembro, Segunda-feira

    Tempo Temperatura Precipitação Vento Pressão Humidade
    00:00 +17°C° 0.1 mm 2 m/s 761 mmHg 65%
    01:00 +16°C° 1.1 mm 2 m/s 761 mmHg 68%
    02:00 +16°C° 1.1 mm 2 m/s 760 mmHg 71%
    03:00 +16°C° 0 mm 2 m/s 760 mmHg 75%
    04:00 +16°C° 0.6 mm 2 m/s 759 mmHg 75%
    05:00 +14°C° 0.6 mm 3 m/s 759 mmHg 75%
    06:00 +14°C° 0.6 mm 3 m/s 759 mmHg 75%
    07:00 +16°C° 0 mm 3 m/s 759 mmHg 72%
    08:00 +16°C° 0 mm 2 m/s 759 mmHg 69%
    09:00 +15°C° 0 mm 2 m/s 759 mmHg 68%
    10:00 +16°C° 0 mm 2 m/s 759 mmHg 63%
    11:00 +17°C° 0 mm 2 m/s 759 mmHg 58%
    12:00 +18°C° 0 mm 2 m/s 758 mmHg 53%
    13:00 +18°C° 0 mm 2 m/s 758 mmHg 51%
    14:00 +20°C° 0 mm 1 m/s 758 mmHg 48%
    15:00 +18°C° 0 mm 1 m/s 758 mmHg 54%
    16:00 +18°C° 0.1 mm 1 m/s 759 mmHg 55%
    17:00 +17°C° 0.1 mm 2 m/s 759 mmHg 55%
    18:00 +17°C° 0.1 mm 2 m/s 760 mmHg 56%
    19:00 +17°C° 0.3 mm 3 m/s 760 mmHg 58%
    20:00 +16°C° 0.3 mm 3 m/s 760 mmHg 60%
    21:00 +15°C° 0.3 mm 4 m/s 760 mmHg 61%
    22:00 +15°C° 0.3 mm 4 m/s 760 mmHg 60%
    23:00 +15°C° 0.3 mm 4 m/s 760 mmHg 59%

    Amanhã, 20 Novembro, Terça-feira

    Tempo Temperatura Precipitação Vento Pressão Humidade
    00:00 +14°C° 0.3 mm 4 m/s 760 mmHg 57%
    01:00 +14°C° 0 mm 5 m/s 761 mmHg 56%
    02:00 +14°C° 0 mm 5 m/s 761 mmHg 54%
    03:00 +13°C° 0 mm 5 m/s 761 mmHg 52%
    04:00 +13°C° 0 mm 5 m/s 761 mmHg 51%
    05:00 +13°C° 0 mm 5 m/s 761 mmHg 51%
    06:00 +11°C° 0 mm 6 m/s 762 mmHg 50%
    07:00 +11°C° 0 mm 6 m/s 762 mmHg 48%
    08:00 +13°C° 0 mm 5 m/s 762 mmHg 46%
    09:00 +13°C° 0 mm 5 m/s 763 mmHg 44%
    10:00 +13°C° 0 mm 5 m/s 763 mmHg 42%
    11:00 +14°C° 0 mm 4 m/s 763 mmHg 40%
    12:00 +15°C° 0 mm 4 m/s 763 mmHg 38%
    13:00 +16°C° 0 mm 3 m/s 763 mmHg 37%
    14:00 +16°C° 0 mm 3 m/s 763 mmHg 37%
    15:00 +16°C° 0 mm 3 m/s 763 mmHg 36%
    16:00 +16°C° 0 mm 2 m/s 764 mmHg 37%
    17:00 +15°C° 0 mm 2 m/s 764 mmHg 38%
    18:00 +15°C° 0 mm 2 m/s 765 mmHg 39%
    19:00 +15°C° 0 mm 2 m/s 765 mmHg 39%
    20:00 +15°C° 0 mm 2 m/s 766 mmHg 40%
    21:00 +15°C° 0 mm 2 m/s 766 mmHg 41%
    22:00 +15°C° 0 mm 2 m/s 766 mmHg 42%
    23:00 +14°C° 0 mm 2 m/s 766 mmHg 44%

    Depois de amanhã, 21 Novembro, Quarta-feira

    Tempo Temperatura Precipitação Vento Pressão Humidade
    00:00 +14°C° 0 mm 2 m/s 766 mmHg 45%
    01:00 +14°C° 0 mm 2 m/s 766 mmHg 46%
    02:00 +14°C° 0 mm 1 m/s 766 mmHg 48%
    03:00 +14°C° 0 mm 1 m/s 766 mmHg 49%
    04:00 +13°C° 0 mm 1 m/s 766 mmHg 49%
    05:00 +13°C° 0 mm 1 m/s 766 mmHg 50%
    06:00 +13°C° 0 mm 1 m/s 766 mmHg 50%
    07:00 +14°C° 0 mm 1 m/s 766 mmHg 48%
    08:00 +15°C° 0 mm 2 m/s 766 mmHg 47%
    09:00 +15°C° 0 mm 2 m/s 767 mmHg 45%
    10:00 +16°C° 0 mm 2 m/s 766 mmHg 46%
    11:00 +17°C° 0 mm 2 m/s 766 mmHg 46%
    12:00 +18°C° 0 mm 2 m/s 765 mmHg 47%
    13:00 +18°C° 0.1 mm 3 m/s 765 mmHg 46%
    14:00 +19°C° 0.1 mm 3 m/s 764 mmHg 46%
    15:00 +19°C° 0.1 mm 3 m/s 764 mmHg 45%
    16:00 +19°C° 0 mm 3 m/s 764 mmHg 45%
    17:00 +18°C° 0 mm 3 m/s 764 mmHg 46%
    18:00 +18°C° 0 mm 3 m/s 764 mmHg 46%
    19:00 +17°C° 0 mm 3 m/s 764 mmHg 46%
    20:00 +17°C° 0 mm 3 m/s 764 mmHg 47%
    21:00 +17°C° 0 mm 2 m/s 764 mmHg 47%
    22:00 +16°C° 0 mm 2 m/s 763 mmHg 47%
    23:00 +16°C° 0 mm 2 m/s 763 mmHg 47%

    22 Novembro, Quinta-feira

    Tempo Temperatura Precipitação Vento Pressão Humidade
    00:00 +16°C° 0 mm 2 m/s 763 mmHg 47%
    01:00 +16°C° 0 mm 3 m/s 763 mmHg 48%
    02:00 +16°C° 0 mm 3 m/s 762 mmHg 49%
    03:00 +16°C° 0 mm 3 m/s 762 mmHg 51%
    04:00 +15°C° 0 mm 4 m/s 762 mmHg 54%
    05:00 +14°C° 0 mm 4 m/s 762 mmHg 57%
    06:00 +14°C° 0 mm 4 m/s 761 mmHg 60%
    07:00 +15°C° 0 mm 4 m/s 761 mmHg 61%
    08:00 +15°C° 0 mm 5 m/s 761 mmHg 61%
    09:00 +15°C° 0 mm 5 m/s 761 mmHg 62%
    10:00 +15°C° 0.1 mm 4 m/s 761 mmHg 61%
    11:00 +17°C° 0.1 mm 4 m/s 760 mmHg 60%
    12:00 +17°C° 0.1 mm 4 m/s 759 mmHg 59%
    13:00 +17°C° 0.1 mm 3 m/s 759 mmHg 57%
    14:00 +17°C° 0.1 mm 3 m/s 758 mmHg 56%
    15:00 +18°C° 0.1 mm 3 m/s 758 mmHg 54%
    16:00 +17°C° 0 mm 2 m/s 758 mmHg 54%
    17:00 +17°C° 0 mm 2 m/s 759 mmHg 55%
    18:00 +16°C° 0 mm 1 m/s 759 mmHg 55%
    19:00 +16°C° 0 mm 1 m/s 759 mmHg 55%
    20:00 +16°C° 0 mm 1 m/s 759 mmHg 55%
    21:00 +16°C° 0 mm 1 m/s 759 mmHg 55%
    22:00 +15°C° 0 mm 2 m/s 760 mmHg 55%
    23:00 +15°C° 0 mm 2 m/s 760 mmHg 55%

    23 Novembro, Sexta-feira

    Tempo Temperatura Precipitação Vento Pressão Humidade
    00:00 +14°C° 0 mm 3 m/s 760 mmHg 55%
    01:00 +13°C° 0 mm 4 m/s 760 mmHg 51%
    02:00 +13°C° 0 mm 4 m/s 760 mmHg 47%
    03:00 +13°C° 0 mm 5 m/s 760 mmHg 43%
    04:00 +12°C° 0 mm 5 m/s 761 mmHg 41%
    05:00 +12°C° 0 mm 5 m/s 761 mmHg 39%
    06:00 +10°C° 0 mm 5 m/s 762 mmHg 37%
    07:00 +12°C° 0 mm 5 m/s 762 mmHg 35%
    08:00 +12°C° 0 mm 4 m/s 762 mmHg 33%
    09:00 +12°C° 0 mm 4 m/s 762 mmHg 31%
    10:00 +13°C° 0 mm 3 m/s 762 mmHg 30%
    11:00 +14°C° 0 mm 3 m/s 761 mmHg 28%
    12:00 +16°C° 0 mm 2 m/s 761 mmHg 27%
    13:00 +16°C° 0 mm 2 m/s 761 mmHg 27%
    14:00 +16°C° 0 mm 2 m/s 761 mmHg 28%
    15:00 +16°C° 0 mm 2 m/s 761 mmHg 29%
    16:00 +16°C° 0 mm 2 m/s 762 mmHg 32%
    17:00 +15°C° 0 mm 2 m/s 762 mmHg 35%
    18:00 +15°C° 0 mm 2 m/s 763 mmHg 38%
    19:00 +13°C° 0 mm 3 m/s 763 mmHg 40%
    20:00 +13°C° 0 mm 4 m/s 763 mmHg 42%
    21:00 +12°C° 0 mm 4 m/s 764 mmHg 44%
    22:00 +12°C° 0 mm 4 m/s 764 mmHg 44%
    23:00 +12°C° 0 mm 4 m/s 764 mmHg 44%

    24 Novembro, Sábado

    Tempo Temperatura Precipitação Vento Pressão Humidade
    00:00 +12°C° 0 mm 4 m/s 764 mmHg 44%
    01:00 +11°C° 0 mm 4 m/s 764 mmHg 44%
    02:00 +11°C° 0 mm 4 m/s 764 mmHg 45%
    03:00 +11°C° 0 mm 4 m/s 764 mmHg 46%
    04:00 +10°C° 0 mm 5 m/s 764 mmHg 48%
    05:00 +9°C° 0 mm 5 m/s 764 mmHg 50%
    06:00 +9°C° 0 mm 5 m/s 764 mmHg 53%
    07:00 +9°C° 0 mm 5 m/s 764 mmHg 51%
    08:00 +10°C° 0 mm 5 m/s 764 mmHg 50%
    09:00 +10°C° 0 mm 5 m/s 764 mmHg 49%
    10:00 +10°C° 0 mm 5 m/s 763 mmHg 48%
    11:00 +10°C° 0 mm 5 m/s 763 mmHg 46%
    12:00 +12°C° 0 mm 5 m/s 762 mmHg 45%
    13:00 +12°C° 0 mm 5 m/s 762 mmHg 46%
    14:00 +12°C° 0 mm 5 m/s 762 mmHg 47%
    15:00 +12°C° 0 mm 5 m/s 762 mmHg 48%
    16:00 +11°C° 0.1 mm 6 m/s 762 mmHg 50%
    17:00 +11°C° 0.1 mm 6 m/s 763 mmHg 52%
    18:00 +10°C° 0.1 mm 6 m/s 763 mmHg 54%
    19:00 +10°C° 0.2 mm 6 m/s 763 mmHg 53%
    20:00 +10°C° 0.2 mm 6 m/s 763 mmHg 52%
    21:00 +10°C° 0.2 mm 6 m/s 763 mmHg 51%
    22:00 +10°C° 0 mm 6 m/s 763 mmHg 51%
    23:00 +9°C° 0 mm 6 m/s 763 mmHg 50%
    Mostrar mais